CW1172 Weather Reports


Display with metric or nautical units.
time (UTC)temp
F
wind
direction
speed
MPH
gust
MPH
rain 1hr
in
rain 24hr
in
rain mn
in
humidity
%
barometer
mb
20260906213003 59 263 0.0 0.0 0.00 0.00 0.01 85 1018.1
20260906210004 59 261 0.0 0.0 0.00 0.00 0.01 86 1018.1
20260906204502 59 244 0.0 0.0 0.00 0.00 0.01 86 1018.3
20260906203002 59 228 0.0 0.0 0.00 0.00 0.01 85 1018.3
20260906200001 58 267 0.0 0.0 0.00 0.00 0.01 84 1018.4
20260906194501 58 312 0.0 0.0 0.00 0.00 0.01 84 1018.6
20260906193000 58 360 0.0 0.0 0.00 0.00 0.01 84 1018.5
20260906190002 58 188 0.0 0.0 0.00 0.00 0.01 82 1018.5
20260906184502 57 223 0.0 0.0 0.00 0.00 0.01 81 1018.5
20260906183005 57 360 0.0 0.0 0.00 0.00 0.01 81 1018.6
20260906180008 58 222 0.0 0.0 0.00 0.00 0.01 79 1018.6
20260906174503 58 203 0.0 0.0 0.00 0.00 0.01 78 1018.6
20260906173008 59 248 0.0 0.0 0.00 0.00 0.01 78 1018.5
20260906164602 59 360 0.0 0.0 0.00 0.00 0.01 77 1018.6
20260906163106 59 273 0.0 0.0 0.00 0.00 0.01 77 1018.6
20260906160003 59 227 0.0 0.0 0.00 0.00 0.01 77 1018.6
20260906154501 59 258 0.0 0.0 0.00 0.00 0.01 76 1018.6
20260906153100 60 239 0.0 0.0 0.00 0.00 0.01 75 1018.5
20260906150057 60 207 0.0 0.0 0.00 0.00 0.01 74 1018.2
20260906144603 61 234 0.0 0.0 0.00 0.00 0.01 73 1018.2
20260906143055 61 231 0.0 0.0 0.00 0.00 0.01 72 1018.3
20260906140055 62 234 0.0 0.0 0.00 0.00 0.01 68 1018.2
20260906134601 64 360 0.0 0.0 0.00 0.00 0.01 67 1018.2
20260906133058 64 267 0.0 0.0 0.00 0.00 0.01 62 1018.2
20260906130100 66 195 0.0 0.0 0.00 0.00 0.01 65 1017.8
20260906124551 66 279 0.0 0.0 0.00 0.00 0.01 68 1017.8
20260906123049 67 360 0.0 0.0 0.00 0.00 0.01 67 1017.8
20260906120048 67 271 0.0 0.0 0.00 0.00 0.01 67 1017.5
20260906114557 67 273 0.0 0.0 0.00 0.00 0.01 62 1017.4
20260906113054 67 285 0.0 0.0 0.00 0.00 0.01 66 1017.3
20260906110045 67 335 0.0 0.0 0.00 0.00 0.01 69 1017.1
20260906104542 67 77 0.0 0.0 0.00 0.00 0.01 68 1016.9
20260906103040 66 258 0.0 0.0 0.00 0.00 0.01 67 1016.7
20260906100040 66 190 0.0 0.0 0.00 0.00 0.00 72 1016.6
20260906094539 66 360 0.0 0.0 0.00 0.00 0.00 71 1016.4
20260906093038 66 304 0.0 0.0 0.00 0.00 0.00 72 1016.3
20260906090033 65 277 0.0 0.0 0.00 0.00 0.00 76 1016.0
20260906084532 64 224 0.0 0.0 0.00 0.00 0.00 75 1015.9
20260906083028 63 303 0.0 0.0 0.00 0.00 0.00 80 1015.7
20260906080032 61 287 0.0 0.0 0.00 0.00 0.00 86 1015.6
20260906074527 61 218 0.0 0.0 0.00 0.00 0.00 89 1015.4
20260906073022 59 210 0.0 0.0 0.00 0.00 0.00 92 1015.3
20260906070013 57 209 0.0 0.0 0.00 0.00 0.00 94 1014.8
20260906064512 56 131 0.0 0.0 0.00 0.00 0.00 95 1014.8
20260906063009 55 130 0.0 0.0 0.00 0.00 0.00 95 1014.7
20260906060059 50 130 0.0 0.0 0.00 0.00 0.00 95 1014.5
20260906054558 48 130 0.0 0.0 0.00 0.00 0.00 94 1014.3
20260906053056 48 129 0.0 0.0 0.00 0.00 0.00 94 1014.1
20260906051655 47 130 0.0 0.0 0.00 0.00 0.00 94 1013.9
20260906050056 47 130 0.0 0.0 0.00 0.00 0.00 94 1013.7
20260906044554 47 131 0.0 0.0 0.00 0.00 0.00 94 1013.7
20260906043053 47 130 0.0 0.0 0.00 0.00 0.00 94 1013.4
20260906041651 47 131 0.0 0.0 0.00 0.00 0.00 94 1013.0
20260906040050 47 131 0.0 0.0 0.00 0.00 0.00 94 1012.9
20260906034550 47 131 0.0 0.0 0.00 0.00 0.00 94 1012.8
20260906033052 47 130 0.0 0.0 0.00 0.00 0.00 94 1012.8
20260906031647 47 130 0.0 0.0 0.00 0.00 0.00 93 1012.5
20260906030045 47 130 0.0 0.0 0.00 0.00 0.00 93 1012.3
20260906024542 48 131 0.0 0.0 0.00 0.00 0.00 93 1012.1
20260906023041 48 130 0.0 0.0 0.00 0.00 0.00 93 1011.9
20260906021641 48 130 0.0 0.0 0.00 0.00 0.00 93 1011.8
20260906020040 48 130 0.0 0.0 0.00 0.00 0.00 93 1011.8
20260906014540 48 130 0.0 0.0 0.00 0.00 0.00 93 1011.7
20260906013038 48 112 0.0 0.0 0.00 0.00 0.00 93 1011.5
20260906011638 48 111 0.0 0.0 0.00 0.00 0.00 93 1011.2
20260906010036 48 113 0.0 0.0 0.00 0.00 0.00 93 1011.1
20260906004534 48 112 0.0 0.0 0.00 0.00 0.00 93 1011.0
20260906003033 48 111 0.0 0.0 0.00 0.00 0.00 93 1010.8
20260906001533 48 111 0.0 0.0 0.00 0.00 0.00 93 1010.6
20260906000031 48 264 0.0 0.0 0.00 0.00 0.00 93 1010.6
20260905234631 48 265 0.0 0.0 0.00 0.00 0.00 93 1010.5
20260905233030 48 263 0.0 0.0 0.00 0.00 0.00 93 1010.4
20260905231528 48 264 0.0 0.0 0.00 0.00 0.00 93 1010.2
20260905230029 48 264 0.0 0.0 0.00 0.00 0.00 92 1009.9
20260905224625 49 264 0.0 0.0 0.00 0.00 0.00 93 1009.8
20260905223023 49 263 0.0 0.0 0.00 0.00 0.00 92 1009.7
20260905221521 49 264 0.0 0.0 0.00 0.00 0.00 92 1009.5
20260905220019 49 264 0.0 0.0 0.00 0.00 0.00 92 1009.2
20260905214618 49 264 0.0 0.0 0.00 0.00 0.27 92 1008.9